| time (UTC) | temp F | wind direction | speed knots | gust knots | rain 1hr in | rain 24hr in | rain mn in | humidity % | barometer mb |
| 20260505152121 | 80 | 190 | 10.4 | 13.9 | 0.00 | 0.00 | 0.00 | 81 | 1009.2 |
| 20260505151624 | 80 | 2 | 10.4 | 13.9 | 0.00 | 0.00 | 0.00 | 81 | 1009.3 |
| 20260505151107 | 80 | 187 | 10.4 | 13.9 | 0.00 | 0.00 | 0.00 | 81 | 1009.3 |
| 20260505150552 | 80 | 186 | 10.4 | 13.9 | 0.00 | 0.00 | 0.00 | 81 | 1009.3 |
| 20260505140154 | 78 | 211 | 10.4 | 14.8 | 0.00 | 0.00 | 0.00 | 82 | 1009.1 |
| 20260505130142 | 78 | 180 | 12.2 | 15.6 | 0.00 | 0.00 | 0.00 | 82 | 1008.6 |
| 20260505124825 | 78 | 188 | 11.3 | 13.9 | 0.00 | 0.00 | 0.00 | 82 | 1008.6 |
| 20260505124306 | 78 | 196 | 11.3 | 16.5 | 0.00 | 0.00 | 0.00 | 82 | 1008.7 |
| 20260505123748 | 78 | 185 | 10.4 | 16.5 | 0.00 | 0.00 | 0.00 | 82 | 1008.9 |
| 20260505123243 | 78 | 198 | 11.3 | 16.5 | 0.00 | 0.00 | 0.00 | 82 | 1008.9 |
| 20260505122747 | 78 | 188 | 11.3 | 16.5 | 0.00 | 0.00 | 0.00 | 82 | 1008.7 |
| 20260505122252 | 78 | 192 | 11.3 | 14.8 | 0.00 | 0.00 | 0.00 | 82 | 1008.8 |
| 20260505121124 | 77 | 173 | 11.3 | 16.5 | 0.00 | 0.00 | 0.00 | 82 | 1008.6 |
| 20260505120608 | 77 | 173 | 11.3 | 16.5 | 0.00 | 0.00 | 0.00 | 82 | 1008.5 |
| 20260505120103 | 77 | 194 | 12.2 | 16.5 | 0.00 | 0.00 | 0.00 | 82 | 1008.5 |
| 20260505115549 | 77 | 187 | 10.4 | 15.6 | 0.00 | 0.00 | 0.00 | 82 | 1008.4 |
| 20260505115052 | 77 | 186 | 9.6 | 14.8 | 0.00 | 0.00 | 0.00 | 82 | 1008.5 |
| 20260505113910 | 77 | 182 | 9.6 | 14.8 | 0.00 | 0.00 | 0.00 | 82 | 1008.7 |
| 20260505113351 | 77 | 163 | 8.7 | 14.8 | 0.00 | 0.00 | 0.00 | 82 | 1009.0 |
| 20260505112857 | 77 | 207 | 9.6 | 14.8 | 0.00 | 0.00 | 0.00 | 82 | 1008.9 |
| 20260505112343 | 77 | 180 | 9.6 | 14.8 | 0.00 | 0.00 | 0.00 | 82 | 1008.6 |
| 20260505111840 | 77 | 175 | 9.6 | 14.8 | 0.00 | 0.00 | 0.00 | 82 | 1008.4 |
| 20260505111330 | 77 | 201 | 10.4 | 14.8 | 0.00 | 0.00 | 0.00 | 82 | 1008.4 |
| 20260505110823 | 77 | 196 | 10.4 | 14.8 | 0.00 | 0.00 | 0.00 | 82 | 1008.3 |
| 20260505110324 | 77 | 183 | 10.4 | 14.8 | 0.00 | 0.00 | 0.00 | 81 | 1008.2 |
| 20260505102219 | 77 | 202 | 9.6 | 14.8 | 0.00 | 0.00 | 0.00 | 81 | 1008.5 |
| 20260505101701 | 77 | 206 | 9.6 | 14.8 | 0.00 | 0.00 | 0.00 | 81 | 1008.4 |
| 20260505100523 | 77 | 188 | 8.7 | 13.9 | 0.00 | 0.00 | 0.00 | 81 | 1008.5 |
| 20260505100015 | 77 | 168 | 9.6 | 14.8 | 0.00 | 0.00 | 0.00 | 81 | 1008.6 |
| 20260505095456 | 77 | 189 | 9.6 | 14.8 | 0.00 | 0.00 | 0.00 | 81 | 1008.5 |
| 20260505094959 | 77 | 199 | 9.6 | 14.8 | 0.00 | 0.00 | 0.00 | 80 | 1008.5 |
| 20260505094505 | 77 | 183 | 9.6 | 14.8 | 0.00 | 0.00 | 0.00 | 80 | 1008.5 |
| 20260505092709 | 77 | 192 | 9.6 | 15.6 | 0.00 | 0.00 | 0.00 | 80 | 1008.5 |
| 20260505092148 | 77 | 212 | 9.6 | 15.6 | 0.00 | 0.00 | 0.00 | 80 | 1008.5 |
| 20260505091637 | 77 | 192 | 9.6 | 15.6 | 0.00 | 0.00 | 0.00 | 80 | 1008.4 |
| 20260505091118 | 77 | 202 | 9.6 | 15.6 | 0.00 | 0.00 | 0.00 | 80 | 1008.5 |
| 20260505090604 | 77 | 191 | 10.4 | 14.8 | 0.00 | 0.00 | 0.00 | 80 | 1008.4 |
| 20260505090106 | 77 | 198 | 10.4 | 16.5 | 0.00 | 0.00 | 0.00 | 80 | 1008.4 |
| 20260505085602 | 77 | 195 | 11.3 | 16.5 | 0.00 | 0.00 | 0.00 | 80 | 1008.3 |
| 20260505085108 | 77 | 177 | 10.4 | 17.4 | 0.00 | 0.00 | 0.00 | 80 | 1008.4 |
| 20260505084552 | 77 | 208 | 10.4 | 17.4 | 0.00 | 0.00 | 0.00 | 80 | 1008.4 |
| 20260505084059 | 77 | 208 | 10.4 | 17.4 | 0.00 | 0.00 | 0.00 | 80 | 1008.5 |
| 20260505083544 | 77 | 185 | 10.4 | 17.4 | 0.00 | 0.00 | 0.00 | 80 | 1008.6 |
| 20260505082419 | 77 | 177 | 11.3 | 17.4 | 0.00 | 0.00 | 0.00 | 80 | 1008.7 |
| 20260505081925 | 77 | 186 | 11.3 | 17.4 | 0.00 | 0.00 | 0.00 | 80 | 1008.8 |
| 20260505081410 | 77 | 180 | 11.3 | 15.6 | 0.00 | 0.00 | 0.00 | 80 | 1008.9 |
| 20260505080244 | 77 | 188 | 10.4 | 17.4 | 0.00 | 0.00 | 0.00 | 79 | 1009.0 |
| 20260505075724 | 77 | 212 | 10.4 | 17.4 | 0.00 | 0.00 | 0.00 | 79 | 1009.0 |
| 20260505075219 | 77 | 179 | 11.3 | 17.4 | 0.00 | 0.00 | 0.00 | 79 | 1009.0 |
| 20260505074718 | 77 | 194 | 11.3 | 16.5 | 0.00 | 0.00 | 0.00 | 79 | 1008.9 |
| 20260505074224 | 77 | 197 | 11.3 | 16.5 | 0.00 | 0.00 | 0.00 | 79 | 1008.9 |
| 20260505073705 | 77 | 173 | 11.3 | 17.4 | 0.00 | 0.00 | 0.00 | 79 | 1009.0 |
| 20260505072520 | 77 | 209 | 11.3 | 17.4 | 0.00 | 0.00 | 0.00 | 78 | 1009.3 |
| 20260505072024 | 77 | 183 | 10.4 | 17.4 | 0.00 | 0.00 | 0.00 | 78 | 1009.3 |
| 20260505071516 | 77 | 173 | 10.4 | 16.5 | 0.00 | 0.00 | 0.00 | 78 | 1009.4 |
| 20260505070356 | 77 | 180 | 10.4 | 17.4 | 0.00 | 0.00 | 0.00 | 78 | 1009.7 |
| 20260505065249 | 77 | 201 | 10.4 | 16.5 | 0.00 | 0.00 | 0.00 | 77 | 1009.7 |
| 20260505064733 | 77 | 186 | 9.6 | 17.4 | 0.00 | 0.00 | 0.00 | 78 | 1009.8 |
| 20260505063536 | 77 | 195 | 12.2 | 17.4 | 0.00 | 0.00 | 0.00 | 77 | 1009.9 |
| 20260505063025 | 77 | 196 | 11.3 | 16.5 | 0.00 | 0.00 | 0.00 | 77 | 1010.0 |
| 20260505062521 | 77 | 196 | 12.2 | 16.5 | 0.00 | 0.00 | 0.00 | 77 | 1010.0 |
| 20260505061336 | 77 | 190 | 11.3 | 17.4 | 0.00 | 0.00 | 0.00 | 77 | 1009.9 |
| 20260505060821 | 77 | 207 | 12.2 | 17.4 | 0.00 | 0.00 | 0.00 | 76 | 1010.1 |
| 20260505060300 | 77 | 212 | 11.3 | 15.6 | 0.00 | 0.00 | 0.00 | 76 | 1010.1 |
| 20260505055759 | 77 | 195 | 11.3 | 15.6 | 0.00 | 0.00 | 0.00 | 77 | 1010.1 |
| 20260505055249 | 77 | 213 | 12.2 | 18.2 | 0.00 | 0.00 | 0.00 | 76 | 1010.1 |
| 20260505054740 | 77 | 2 | 13.0 | 18.2 | 0.00 | 0.00 | 0.00 | 76 | 1010.0 |
| 20260505054221 | 77 | 192 | 13.0 | 18.2 | 0.00 | 0.00 | 0.00 | 77 | 1010.1 |
| 20260505053710 | 77 | 169 | 13.0 | 18.2 | 0.00 | 0.00 | 0.00 | 76 | 1010.1 |
| 20260505053209 | 77 | 183 | 13.0 | 18.2 | 0.00 | 0.00 | 0.00 | 76 | 1009.8 |
| 20260505052712 | 77 | 175 | 13.0 | 17.4 | 0.00 | 0.00 | 0.00 | 76 | 1010.1 |
| 20260505052207 | 77 | 217 | 13.0 | 17.4 | 0.00 | 0.00 | 0.00 | 76 | 1010.1 |
| 20260505051707 | 77 | 187 | 13.0 | 17.4 | 0.00 | 0.00 | 0.00 | 76 | 1010.2 |
| 20260505051204 | 77 | 200 | 13.0 | 17.4 | 0.00 | 0.00 | 0.00 | 75 | 1010.2 |
| 20260505050654 | 77 | 171 | 13.0 | 17.4 | 0.00 | 0.00 | 0.00 | 75 | 1010.3 |
| 20260505050140 | 77 | 182 | 13.0 | 18.2 | 0.00 | 0.00 | 0.00 | 75 | 1010.5 |
| 20260505041454 | 77 | 191 | 13.0 | 16.5 | 0.00 | 0.00 | 0.00 | 74 | 1010.7 |
| 20260505040323 | 77 | 169 | 12.2 | 16.5 | 0.00 | 0.00 | 0.00 | 74 | 1010.8 |
| 20260505035821 | 77 | 182 | 12.2 | 19.1 | 0.00 | 0.00 | 0.00 | 74 | 1010.8 |
| 20260505035327 | 77 | 186 | 12.2 | 19.1 | 0.00 | 0.00 | 0.00 | 74 | 1010.8 |
| 20260505034808 | 77 | 197 | 13.0 | 19.1 | 0.00 | 0.00 | 0.00 | 73 | 1010.8 |
| 20260505034310 | 77 | 194 | 13.0 | 19.1 | 0.00 | 0.00 | 0.00 | 73 | 1010.7 |
| 20260505033807 | 77 | 189 | 12.2 | 17.4 | 0.00 | 0.00 | 0.00 | 74 | 1010.8 |
| 20260505032626 | 77 | 191 | 13.0 | 17.4 | 0.00 | 0.00 | 0.00 | 73 | 1010.8 |
| 20260505032111 | 77 | 176 | 12.2 | 16.5 | 0.00 | 0.00 | 0.00 | 73 | 1011.0 |
| 20260505031610 | 77 | 197 | 12.2 | 16.5 | 0.00 | 0.00 | 0.00 | 73 | 1010.9 |
| 20260505025826 | 77 | 173 | 13.0 | 17.4 | 0.00 | 0.00 | 0.00 | 73 | 1011.0 |
| 20260505024001 | 77 | 190 | 12.2 | 16.5 | 0.00 | 0.00 | 0.00 | 73 | 1010.9 |
| 20260505023503 | 77 | 2 | 12.2 | 15.6 | 0.00 | 0.00 | 0.00 | 72 | 1010.9 |
| 20260505022956 | 77 | 187 | 12.2 | 15.6 | 0.00 | 0.00 | 0.00 | 72 | 1010.9 |
| 20260505022500 | 77 | 2 | 11.3 | 16.5 | 0.00 | 0.00 | 0.00 | 72 | 1010.9 |
| 20260505021958 | 77 | 195 | 11.3 | 16.5 | 0.00 | 0.00 | 0.00 | 72 | 1011.0 |
| 20260505021453 | 77 | 184 | 11.3 | 16.5 | 0.00 | 0.00 | 0.00 | 71 | 1010.9 |
| 20260505020931 | 77 | 184 | 11.3 | 16.5 | 0.00 | 0.00 | 0.00 | 72 | 1010.7 |
| 20260505020417 | 77 | 186 | 11.3 | 15.6 | 0.00 | 0.00 | 0.00 | 72 | 1010.7 |
| 20260505015922 | 77 | 2 | 11.3 | 14.8 | 0.00 | 0.00 | 0.00 | 72 | 1010.6 |
| 20260505015403 | 77 | 196 | 11.3 | 14.8 | 0.00 | 0.00 | 0.00 | 71 | 1010.7 |
| 20260505014906 | 77 | 2 | 11.3 | 14.8 | 0.00 | 0.00 | 0.00 | 71 | 1010.7 |
| 20260505014401 | 77 | 2 | 11.3 | 13.9 | 0.00 | 0.00 | 0.00 | 71 | 1010.7 |
| 20260505013846 | 77 | 2 | 10.4 | 13.9 | 0.00 | 0.00 | 0.00 | 71 | 1010.9 |
| 20260505013338 | 77 | 194 | 11.3 | 14.8 | 0.00 | 0.00 | 0.00 | 71 | 1010.7 |
| 20260505012822 | 77 | 188 | 11.3 | 14.8 | 0.00 | 0.00 | 0.00 | 70 | 1010.8 |
| 20260505012304 | 77 | 165 | 10.4 | 14.8 | 0.00 | 0.00 | 0.00 | 71 | 1010.6 |
| 20260505010523 | 77 | 190 | 10.4 | 13.9 | 0.00 | 0.00 | 0.00 | 70 | 1010.6 |
| 20260505010001 | 77 | 167 | 11.3 | 13.9 | 0.00 | 0.00 | 0.00 | 70 | 1010.4 |
| 20260505005447 | 77 | 2 | 10.4 | 13.9 | 0.00 | 0.00 | 0.00 | 69 | 1010.4 |
| 20260505004935 | 77 | 2 | 10.4 | 16.5 | 0.00 | 0.00 | 0.00 | 70 | 1010.3 |
| 20260505004434 | 77 | 191 | 10.4 | 16.5 | 0.00 | 0.00 | 0.00 | 69 | 1010.3 |
| 20260505003937 | 77 | 162 | 11.3 | 16.5 | 0.00 | 0.00 | 0.00 | 69 | 1010.3 |
| 20260505002747 | 77 | 2 | 10.4 | 13.9 | 0.00 | 0.00 | 0.00 | 69 | 1010.5 |
| 20260505002224 | 77 | 2 | 9.6 | 13.9 | 0.00 | 0.00 | 0.00 | 69 | 1010.6 |
| 20260505001712 | 77 | 2 | 9.6 | 13.9 | 0.00 | 0.00 | 0.00 | 69 | 1010.7 |
| 20260505001214 | 78 | 2 | 10.4 | 13.9 | 0.00 | 0.00 | 0.00 | 68 | 1010.7 |
| 20260505000712 | 78 | 2 | 10.4 | 13.9 | 0.00 | 0.00 | 0.00 | 68 | 1010.6 |
| 20260504235558 | 78 | 2 | 9.6 | 13.9 | 0.00 | 0.00 | 0.00 | 68 | 1010.6 |
| 20260504235051 | 78 | 181 | 9.6 | 13.9 | 0.00 | 0.00 | 0.00 | 68 | 1010.9 |
| 20260504234533 | 78 | 2 | 8.7 | 13.9 | 0.00 | 0.00 | 0.00 | 68 | 1011.0 |
| 20260504234038 | 78 | 2 | 9.6 | 13.9 | 0.00 | 0.00 | 0.00 | 67 | 1011.0 |
| 20260504233519 | 78 | 2 | 9.6 | 13.9 | 0.00 | 0.00 | 0.00 | 66 | 1011.0 |
| 20260504233006 | 78 | 186 | 8.7 | 13.0 | 0.00 | 0.00 | 0.00 | 66 | 1011.1 |
| 20260504232506 | 78 | 2 | 8.7 | 13.0 | 0.00 | 0.00 | 0.00 | 66 | 1011.2 |
| 20260504232013 | 78 | 2 | 8.7 | 13.0 | 0.00 | 0.00 | 0.00 | 68 | 1011.3 |
| 20260504231512 | 78 | 2 | 8.7 | 12.2 | 0.00 | 0.00 | 0.00 | 66 | 1011.3 |
| 20260504231018 | 78 | 2 | 8.7 | 12.2 | 0.00 | 0.00 | 0.00 | 67 | 1011.4 |
| 20260504225852 | 78 | 2 | 8.7 | 11.3 | 0.00 | 0.00 | 0.00 | 66 | 1011.3 |
| 20260504225351 | 78 | 180 | 7.8 | 11.3 | 0.00 | 0.00 | 0.00 | 66 | 1011.3 |
| 20260504224855 | 79 | 186 | 7.8 | 11.3 | 0.00 | 0.00 | 0.00 | 65 | 1011.5 |
| 20260504223734 | 79 | 181 | 7.8 | 11.3 | 0.00 | 0.00 | 0.00 | 65 | 1011.7 |
| 20260504223220 | 79 | 2 | 7.8 | 11.3 | 0.00 | 0.00 | 0.00 | 65 | 1011.7 |
| 20260504222727 | 79 | 2 | 7.8 | 10.4 | 0.00 | 0.00 | 0.00 | 64 | 1011.9 |
| 20260504222221 | 79 | 190 | 7.0 | 11.3 | 0.00 | 0.00 | 0.00 | 64 | 1011.8 |
| 20260504221058 | 79 | 2 | 8.7 | 11.3 | 0.00 | 0.00 | 0.00 | 63 | 1011.8 |
| 20260504215942 | 80 | 2 | 7.0 | 10.4 | 0.00 | 0.00 | 0.00 | 63 | 1011.9 |
| 20260504214809 | 80 | 183 | 7.8 | 11.3 | 0.00 | 0.00 | 0.00 | 62 | 1012.0 |
| 20260504214258 | 80 | 2 | 7.8 | 11.3 | 0.00 | 0.00 | 0.00 | 62 | 1012.0 |
| 20260504213805 | 80 | 2 | 8.7 | 11.3 | 0.00 | 0.00 | 0.00 | 62 | 1012.0 |
| 20260504213302 | 80 | 181 | 8.7 | 12.2 | 0.00 | 0.00 | 0.00 | 63 | 1012.2 |
| 20260504212743 | 80 | 197 | 7.8 | 12.2 | 0.00 | 0.00 | 0.00 | 62 | 1012.2 |
| 20260504212235 | 80 | 2 | 7.8 | 12.2 | 0.00 | 0.00 | 0.00 | 62 | 1012.5 |
| 20260504211719 | 80 | 2 | 7.8 | 12.2 | 0.00 | 0.00 | 0.00 | 62 | 1012.6 |
| 20260504211200 | 80 | 2 | 7.8 | 11.3 | 0.00 | 0.00 | 0.00 | 62 | 1012.5 |
| 20260504210648 | 79 | 2 | 7.8 | 11.3 | 0.00 | 0.00 | 0.00 | 61 | 1012.6 |
| 20260504210130 | 79 | 192 | 7.8 | 12.2 | 0.00 | 0.00 | 0.00 | 63 | 1012.5 |
| 20260504205608 | 79 | 2 | 7.8 | 12.2 | 0.00 | 0.00 | 0.00 | 63 | 1012.6 |
| 20260504205054 | 80 | 2 | 7.8 | 12.2 | 0.00 | 0.00 | 0.00 | 63 | 1012.6 |
| 20260504204559 | 80 | 2 | 7.0 | 12.2 | 0.00 | 0.00 | 0.00 | 62 | 1012.7 |
| 20260504204056 | 80 | 2 | 7.0 | 10.4 | 0.00 | 0.00 | 0.00 | 63 | 1012.9 |
| 20260504203558 | 80 | 2 | 7.0 | 10.4 | 0.00 | 0.00 | 0.00 | 61 | 1013.0 |
| 20260504201119 | 79 | 2 | 7.8 | 10.4 | 0.00 | 0.00 | 0.00 | 62 | 1013.1 |
| 20260504200623 | 79 | 2 | 7.8 | 10.4 | 0.00 | 0.00 | 0.00 | 62 | 1013.0 |
| 20260504200114 | 80 | 2 | 7.8 | 11.3 | 0.00 | 0.00 | 0.00 | 61 | 1013.2 |
| 20260504195619 | 80 | 193 | 7.8 | 11.3 | 0.00 | 0.00 | 0.00 | 61 | 1013.3 |
| 20260504195119 | 80 | 192 | 7.0 | 11.3 | 0.00 | 0.00 | 0.00 | 62 | 1013.4 |
| 20260504194624 | 80 | 166 | 7.8 | 11.3 | 0.00 | 0.00 | 0.00 | 61 | 1013.6 |
| 20260504194118 | 80 | 197 | 7.8 | 13.0 | 0.00 | 0.00 | 0.00 | 61 | 1013.6 |
| 20260504192350 | 80 | 2 | 8.7 | 11.3 | 0.00 | 0.00 | 0.00 | 62 | 1013.6 |
| 20260504191828 | 80 | 183 | 8.7 | 11.3 | 0.00 | 0.00 | 0.00 | 60 | 1013.7 |
| 20260504191333 | 80 | 2 | 7.8 | 11.3 | 0.00 | 0.00 | 0.00 | 60 | 1013.7 |
| 20260504185541 | 80 | 2 | 7.8 | 11.3 | 0.00 | 0.00 | 0.00 | 61 | 1013.8 |
| 20260504185025 | 80 | 2 | 8.7 | 11.3 | 0.00 | 0.00 | 0.00 | 62 | 1013.9 |
| 20260504184526 | 80 | 2 | 7.8 | 11.3 | 0.00 | 0.00 | 0.00 | 60 | 1013.9 |
| 20260504184032 | 81 | 188 | 7.8 | 12.2 | 0.00 | 0.00 | 0.00 | 60 | 1013.9 |
| 20260504183531 | 81 | 227 | 7.0 | 12.2 | 0.00 | 0.00 | 0.00 | 59 | 1014.1 |
| 20260504182404 | 80 | 2 | 7.8 | 12.2 | 0.00 | 0.00 | 0.00 | 60 | 1014.2 |
| 20260504181846 | 80 | 190 | 7.8 | 12.2 | 0.00 | 0.00 | 0.00 | 60 | 1014.1 |
| 20260504181328 | 80 | 2 | 7.8 | 12.2 | 0.00 | 0.00 | 0.00 | 60 | 1014.1 |
| 20260504180808 | 80 | 206 | 7.8 | 14.8 | 0.00 | 0.00 | 0.00 | 61 | 1014.3 |
| 20260504180308 | 80 | 2 | 8.7 | 14.8 | 0.00 | 0.00 | 0.00 | 60 | 1014.3 |
| 20260504175804 | 79 | 200 | 8.7 | 14.8 | 0.00 | 0.00 | 0.00 | 59 | 1014.2 |
| 20260504175301 | 79 | 188 | 8.7 | 14.8 | 0.00 | 0.00 | 0.00 | 59 | 1014.5 |
| 20260504173456 | 79 | 2 | 9.6 | 13.0 | 0.00 | 0.00 | 0.00 | 60 | 1014.8 |
| 20260504172946 | 79 | 2 | 8.7 | 12.2 | 0.00 | 0.00 | 0.00 | 60 | 1014.8 |
| 20260504171803 | 79 | 174 | 9.6 | 13.0 | 0.00 | 0.00 | 0.00 | 62 | 1014.8 |
| 20260504171254 | 79 | 177 | 9.6 | 13.0 | 0.00 | 0.00 | 0.00 | 61 | 1014.9 |
| 20260504170144 | 78 | 2 | 10.4 | 13.0 | 0.00 | 0.00 | 0.00 | 61 | 1015.2 |
| 20260504160413 | 78 | 179 | 9.6 | 14.8 | 0.00 | 0.00 | 0.00 | 60 | 1015.5 |